Overview Statistics Trail Chart Weather Telemetry Raw packets
 

This is the latest recevied weather packets stored in our database for station/object G0TQM-11. If no packets are shown the sender has not sent any weather packets the latest 10 day(s).

<< 25 26 27 28 29 >>
Time Temp. Humidity Pressure Rain* Wind** Luminosity Snow
1787889698 20.56° C 70% 1000.9 hPa - - - -
1787888497 20.56° C 70% 1001.1 hPa - - - -
1787887297 20.56° C 69% 1001.2 hPa - - - -
1787886097 20.56° C 71% 1001.4 hPa - - - -
1787884897 20.56° C 71% 1001.6 hPa - - - -
1787883697 20° C 70% 1001.6 hPa - - - -
1787882497 20° C 71% 1001.6 hPa - - - -
1787881297 20° C 71% 1001.5 hPa - - - -
1787880096 20.56° C 72% 1001.6 hPa - - - -
1787878896 20.56° C 72% 1001.8 hPa - - - -
1787877696 20.56° C 72% 1001.9 hPa - - - -
1787876496 20.56° C 72% 1002 hPa - - - -
1787875296 20.56° C 72% 1002.1 hPa - - - -
1787874096 20.56° C 71% 1002.3 hPa - - - -
1787872895 20° C 70% 1002.6 hPa - - - -
1787871695 20.56° C 70% 1002.8 hPa - - - -
1787870495 20.56° C 71% 1002.9 hPa - - - -
1787869295 20.56° C 70% 1003 hPa - - - -
1787868095 21.11° C 69% 1003.3 hPa - - - -
1787866895 21.67° C 70% 1003.1 hPa - - - -
1787865695 22.22° C 70% 1003.4 hPa - - - -
1787864494 22.78° C 71% 1003.5 hPa - - - -
1787863294 23.33° C 70% 1003.3 hPa - - - -
1787862094 23.33° C 70% 1003.4 hPa - - - -
1787860894 22.78° C 70% 1003.5 hPa - - - -

* Rain since midnight (hover to see other rain measurements)
** Current wind speed in m/s (hover to see current wind gust speed)